Location: Dillon
(41.1766°N, 107.0923°W)
Time: 21:12:44
(UTC+00:00)

SO-50 - Pass Details

Date: 08 July 2022
Orbit: 584 x 698 km, 64.6° (Epoch: 14 August)

Event Time Altitude Azimuth Distance (km) Brightness Sun altitude
Exits shadow 06:18:59 19° 255° (WSW) 1,569 ? -25.1°
Maximum altitude 06:21:49 36° 311° (NW) 1,061 ? -25.2°
Drops below altitude 10° 06:26:17 10° 18° (NNE) 2,129 ? -25.4°
Sets 06:28:50 0° 27° (NNE) 3,061 ? -25.5°
